Date String (YYYY-MM-DD hh:mm:ss) UTC,Instrument flags,Ambient pressure (hPa),Sample flow (lpm),Bypass flow (lpm),Sample temperature (°C),Ambient temperature (°C),ASC tube jacket temperature (°C),LED temperature (°C),Box temperature (°C),Sample RH (%),Span deviation,Mass concentration (μg/m³),Mass concentration (μg/m³),Mass concentration (μg/m³)
DateTimeUTC,F1_M11,P_M11,Q1_M11,Q2_M11,T1_M11,T2_M11,T3_M11,T4_M11,T5_M11,U1_M11,ZSPAN_M11,X2_M11,X0_M11,X1_M11
2021-11-01 02:00:00,,0829.8,4.99,0.00,25.9,25.0,00.0,34.9,27.7,17.6,0000.0,0005.65,0009.43,0005.12
2021-11-01 02:01:00,,0829.8,5.02,0.00,25.9,24.9,00.0,34.9,27.7,17.7,0000.0,0005.63,0009.32,0005.14
2021-11-01 02:02:00,,0829.8,4.99,0.00,25.9,24.9,00.0,34.9,27.7,17.7,0000.0,0005.65,0009.52,0005.15
2021-11-01 02:03:00,,0829.8,5.00,0.00,25.9,24.9,00.0,34.9,27.7,17.7,0000.0,0005.68,0010.49,0005.17
2021-11-01 02:04:00,,0829.7,5.00,0.00,25.9,25.0,00.0,34.9,27.7,17.7,0000.0,0005.71,0010.37,0005.19
2021-11-01 02:05:00,,0829.7,5.00,0.00,25.9,24.9,00.0,34.9,27.7,17.7,0000.0,0005.70,0010.29,0005.22
2021-11-01 02:06:00,,0829.8,5.00,0.00,25.9,24.9,00.0,34.9,27.7,17.7,0000.0,0005.71,0009.96,0005.23
2021-11-01 02:07:00,,0829.8,4.99,0.00,25.9,24.9,00.0,34.9,27.7,17.7,0000.0,0005.72,0009.93,0005.25
2021-11-01 02:08:00,,0829.8,5.02,0.00,25.9,24.9,00.0,34.9,27.7,17.7,0000.0,0005.77,0010.10,0005.27
2021-11-01 02:09:00,,0829.8,5.00,0.00,25.9,25.0,00.0,34.9,27.7,17.7,0000.0,0005.77,0009.92,0005.29
2021-11-01 02:10:00,,0829.9,5.00,0.00,25.9,25.0,00.0,34.9,27.7,17.6,0000.0,0005.76,0009.99,0005.30
2021-11-01 02:11:00,,0829.9,5.01,0.00,25.9,25.0,00.0,34.9,27.7,17.6,0000.0,0005.81,0010.15,0005.31
2021-11-01 02:12:00,,0829.8,5.01,0.00,25.9,25.0,00.0,34.9,27.7,17.6,0000.0,0005.85,0010.19,0005.33
2021-11-01 02:13:00,,0829.8,5.00,0.00,25.9,25.0,00.0,34.9,27.7,17.6,0000.0,0005.89,0010.21,0005.34
2021-11-01 02:14:00,,0829.8,5.00,0.00,25.9,24.9,00.0,34.9,27.7,17.6,0000.0,0005.89,0009.03,0005.37
2021-11-01 02:15:00,,0829.8,5.00,0.00,25.9,24.9,00.0,34.9,27.7,17.6,0000.0,0005.93,0009.11,0005.38
2021-11-01 02:16:00,,0829.8,5.01,0.00,25.9,24.9,00.0,34.9,27.7,17.6,0000.0,0005.94,0009.30,0005.39
2021-11-01 02:17:00,,0829.8,5.00,0.00,25.9,24.9,00.0,34.9,27.7,17.5,0000.0,0005.96,0009.53,0005.39
2021-11-01 02:18:00,,0829.8,5.00,0.00,25.9,24.9,00.0,34.9,27.7,17.5,0000.0,0006.00,0009.45,0005.40
2021-11-01 02:19:00,,0829.8,4.99,0.00,25.9,24.9,00.0,34.9,27.7,17.5,0000.0,0006.01,0009.38,0005.41
2021-11-01 02:20:00,,0829.8,5.01,0.00,25.9,24.9,00.0,34.9,27.7,17.5,0000.0,0006.03,0009.42,0005.40
2021-11-01 02:21:00,,0829.9,5.00,0.00,25.9,24.9,00.0,34.9,27.7,17.6,0000.0,0006.06,0009.36,0005.40
2021-11-01 02:22:00,,0829.8,4.99,0.00,25.8,24.9,00.0,34.9,27.7,17.6,0000.0,0006.04,0009.30,0005.39
2021-11-01 02:23:00,,0829.9,5.00,0.00,25.8,24.9,00.0,34.9,27.7,17.6,0000.0,0006.05,0009.47,0005.38
2021-11-01 02:24:00,,0829.8,5.01,0.00,25.8,24.9,00.0,34.9,27.7,17.6,0000.0,0006.06,0010.13,0005.39
2021-11-01 02:25:00,,0829.8,5.00,0.00,25.8,24.9,00.0,34.9,27.7,17.7,0000.0,0006.07,0010.19,0005.38
2021-11-01 02:26:00,,0829.8,4.99,0.00,25.8,24.9,00.0,34.9,27.7,17.7,0000.0,0006.02,0010.12,0005.37
2021-11-01 02:27:00,,0829.8,5.01,0.00,25.8,24.9,00.0,34.9,27.7,17.7,0000.0,0006.00,0010.01,0005.37
2021-11-01 02:28:00,,0829.8,5.00,0.00,25.8,24.9,00.0,34.9,27.7,17.8,0000.0,0005.98,0009.66,0005.36
2021-11-01 02:29:00,,0829.8,5.00,0.00,25.8,24.9,00.0,34.9,27.7,17.8,0000.0,0005.94,0009.62,0005.35
2021-11-01 02:30:00,,0829.8,5.00,0.00,25.8,24.9,00.0,34.9,27.7,17.8,0000.0,0005.91,0009.60,0005.34
2021-11-01 02:31:00,,0829.8,4.99,0.00,25.8,24.9,00.0,34.9,27.7,17.8,0000.0,0005.89,0009.76,0005.33
2021-11-01 02:32:00,,0829.8,5.00,0.00,25.8,24.9,00.0,34.9,27.7,17.9,0000.0,0005.91,0009.82,0005.35
2021-11-01 02:33:00,,0829.8,5.00,0.00,25.8,24.9,00.0,34.9,27.7,17.9,0000.0,0005.93,0009.79,0005.35
2021-11-01 02:34:00,,0829.8,5.00,0.00,25.8,24.9,00.0,34.9,27.7,18.0,0000.0,0005.92,0009.72,0005.35
2021-11-01 02:35:00,,0829.9,5.00,0.00,25.8,24.9,00.0,34.9,27.6,18.0,0000.0,0005.87,0009.11,0005.33
2021-11-01 02:36:00,,0829.9,5.00,0.00,25.8,24.9,00.0,34.9,27.6,18.0,0000.0,0005.83,0009.82,0005.32
2021-11-01 02:37:00,,0829.9,5.01,0.00,25.8,24.9,00.0,34.9,27.6,18.0,0000.0,0005.86,0010.28,0005.32
2021-11-01 02:38:00,,0829.8,5.00,0.00,25.8,24.9,00.0,34.8,27.6,18.0,0000.0,0005.85,0010.35,0005.31
2021-11-01 02:39:00,,0829.8,5.00,0.00,25.8,24.9,00.0,34.8,27.6,18.0,0000.0,0005.86,0010.33,0005.31
2021-11-01 02:40:00,,0829.7,5.00,0.00,25.8,24.9,00.0,34.8,27.6,18.0,0000.0,0005.86,0010.38,0005.30
2021-11-01 02:41:00,,0829.6,5.01,0.00,25.8,24.9,00.0,34.8,27.6,18.1,0000.0,0005.86,0010.27,0005.30
2021-11-01 02:42:00,,0829.7,5.00,0.00,25.8,24.9,00.0,34.8,27.6,18.1,0000.0,0005.88,0010.14,0005.31
2021-11-01 02:43:00,,0829.8,5.00,0.00,25.8,24.9,00.0,34.8,27.6,18.1,0000.0,0005.85,0010.39,0005.31
2021-11-01 02:44:00,,0829.8,4.99,0.00,25.8,24.9,00.0,34.8,27.6,18.0,0000.0,0005.83,0010.77,0005.30
2021-11-01 02:45:00,,0829.8,5.02,0.00,25.8,24.9,00.0,34.8,27.6,18.0,0000.0,0005.81,0010.68,0005.30
2021-11-01 02:46:00,,0829.8,4.99,0.00,25.8,24.9,00.0,34.8,27.6,18.0,0000.0,0005.81,0010.53,0005.31
2021-11-01 02:47:00,,0829.7,5.00,0.00,25.8,24.9,00.0,34.8,27.6,18.0,0000.0,0005.81,0009.58,0005.31
2021-11-01 02:48:00,,0829.6,4.99,0.00,25.8,24.9,00.0,34.8,27.6,18.0,0000.0,0005.79,0009.15,0005.32
2021-11-01 02:49:00,,0829.7,5.00,0.00,25.8,24.9,00.0,34.8,27.6,18.0,0000.0,0005.79,0008.98,0005.33
2021-11-01 02:50:00,,0829.7,5.00,0.00,25.8,24.9,00.0,34.8,27.6,18.0,0000.0,0005.77,0008.93,0005.33
2021-11-01 02:51:00,,0829.7,5.01,0.00,25.8,24.9,00.0,34.8,27.6,18.0,0000.0,0005.76,0009.11,0005.34
2021-11-01 02:52:00,,0829.7,4.99,0.00,25.8,24.9,00.0,34.8,27.6,18.0,0000.0,0005.76,0009.41,0005.34
2021-11-01 02:53:00,,0829.7,5.01,0.00,25.8,24.9,00.0,34.8,27.6,18.0,0000.0,0005.74,0009.45,0005.32
2021-11-01 02:54:00,,0829.6,5.01,0.00,25.8,24.9,00.0,34.8,27.6,18.0,0000.0,0005.74,0009.43,0005.32
2021-11-01 02:55:00,,0829.8,4.99,0.00,25.8,24.9,00.0,34.8,27.6,18.0,0000.0,0005.75,0008.97,0005.34
2021-11-01 02:56:00,,0829.6,4.99,0.00,25.8,24.9,00.0,34.8,27.6,18.0,0000.0,0005.81,0009.10,0005.34
2021-11-01 02:57:00,,0829.6,5.00,0.00,25.7,24.9,00.0,34.8,27.6,18.0,0000.0,0005.82,0009.25,0005.34
2021-11-01 02:58:00,,0829.7,5.01,0.00,25.7,24.8,00.0,34.8,27.6,18.0,0000.0,0005.83,0009.37,0005.34
2021-11-01 02:59:00,,0829.8,5.00,0.00,25.7,24.8,00.0,34.8,27.6,18.0,0000.0,0005.82,0009.49,0005.33
